Location: Arroyo Grande
(40.2671°N, 4.2512°W)
Time: 16:50:18
(UTC+00:00)

Cosmos 44 Rocket - Pass Details

Date: 03 February 2023
Orbit: 646 x 741 km, 65.1° (Epoch: 21 March)

Event Time Altitude Azimuth Distance (km) Brightness Sun altitude
Rises 19:42:09 0° 219° (SW) 2,948 7.1 -24.0°
Reaches altitude 10° 19:44:27 10° 223° (SW) 2,047 6.3 -24.4°
Maximum altitude 19:49:02 62° 304° (NW) 742 3.5 -25.3°
Enters shadow 19:49:57 50° 353° (N) 837 3.6 -25.5°
